STARLINK-2674

operational
NORAD ID: 48354 Int'l Des: 2021-038 Owner: SPXS Country: US Constellation: starlink
LEOCIRCULARSTARLINK_TYPE

Über STARLINK-2674

Beschreibung wird geladen...

Live-Position

3D-Globus wird geladen...

Nächste Überflüge

Höhenverlauf

Altitude vs Time

uPlot chart will show altitude changes over time

Zweizeiliger Elementsatz

1 48354U 21038B 25250.87914102 .00002729 00000-0 20200-3 0 9991
2 48354 53.0543 102.2866 0001355 88.3405 271.7740 15.06406571239471
Epoch: 7. Sept. 2025 • Age: 22 hours

Aktueller Status

Höhe 548.3 km
Geschwindigkeit 7.59 km/s
Subsatellitenpunkt 30.28°N, 157.6°W
Startdatum 4. Mai 2021
Alter 4.3 years
Typ internet

Technische Details

Klassifizierung Payload
Masse 260.00 kg
Trockenmasse 248.00 kg
Gesamtmasse 260.00 kg
Länge 0.20 m
Durchmesser 2.80 m
Spannweite 9.00 m
Form Box + pan
Hersteller SPXS
Bus-Typ Starlink
Phasenstatus In Orbit
Besitzer/Staat SPXS/US

Große Konstellationen

Loading constellations...